WXM80 ListenWXM80 Stop

You find our weather info also at:

UK Metoffice

WeatherCloud

Weather Underground

Northeastern Weather Network

AWEKAS

Citizen Weather Observer Program (CWOP)

HAMweather, WeatherForYou, PWS Weather


Weather Underground History page Text

Daily Summary for Nil La, TWC- Units:  Metric    English   Both
« Previous Day
Next Day »
Daily Weekly Monthly Yearly Custom
  High: Low: Average:
Temperature: 26.1 °C 16.1 °C 19.6 °C
Dew Point: 16.9 °C 13.5 °C 15.1 °C
Humidity: 91 % 53 % 76 %
Wind Speed: 4.7 km/h 0 km/h 0.3 km/h
Wind Gust: 11.1 km/h - -
Wind:- - ENE
Pressure: 1012.4 hPa 1010.4 hPa -
Precipitation: 0 mm    
Historical Graphs
 
 
Tabular Data for Nil La, TWC-
Time Temperature Dew Point Pressure Wind Wind Speed Wind Gust Humidity Rainfall Rate (Hourly)
00:04 20.7 °C 15.3 °C 1010.4 hPa Calm     71 % 0 mm
00:09 20.7 °C 15.4 °C 1010.4 hPa Calm     72 % 0 mm
00:14 20.6 °C 15.4 °C 1010.7 hPa Calm     72 % 0 mm
00:19 20.6 °C 15.3 °C 1010.7 hPa Calm     72 % 0 mm
00:24 20.4 °C 15.4 °C 1010.7 hPa Calm     73 % 0 mm
00:29 20.4 °C 15.7 °C 1010.7 hPa Calm     74 % 0 mm
00:34 20.3 °C 15.6 °C 1010.4 hPa Calm     74 % 0 mm
00:39 20.3 °C 15.8 °C 1010.4 hPa Calm     75 % 0 mm
00:44 20.3 °C 15.7 °C 1010.4 hPa Calm     75 % 0 mm
00:49 20.2 °C 15.7 °C 1010.7 hPa Calm     75 % 0 mm
00:54 20.2 °C 15.6 °C 1010.7 hPa Calm     75 % 0 mm
00:59 20.2 °C 15.6 °C 1010.7 hPa Calm     75 % 0 mm
01:04 20.1 °C 15.6 °C 1010.7 hPa Calm     75 % 0 mm
01:09 20.1 °C 15.5 °C 1010.7 hPa Calm     75 % 0 mm
01:14 20 °C 15.4 °C 1010.7 hPa Calm     75 % 0 mm
01:19 19.9 °C 15.4 °C 1010.7 hPa Calm     75 % 0 mm
01:24 19.9 °C 15.6 °C 1010.7 hPa Calm     76 % 0 mm
01:29 19.8 °C 15.5 °C 1010.7 hPa Calm     76 % 0 mm
01:34 19.8 °C 15.3 °C 1010.7 hPa Calm     75 % 0 mm
01:39 19.8 °C 15.2 °C 1010.7 hPa Calm     75 % 0 mm
01:44 19.7 °C 15.4 °C 1010.7 hPa Calm     76 % 0 mm
01:49 19.7 °C 15.3 °C 1010.7 hPa Calm     76 % 0 mm
01:54 19.6 °C 15.2 °C 1010.7 hPa Calm     76 % 0 mm
01:59 19.5 °C 15.2 °C 1010.7 hPa Calm     76 % 0 mm
02:04 19.4 °C 15.3 °C 1010.7 hPa Calm     77 % 0 mm
02:09 19.3 °C 15 °C 1010.7 hPa Calm     76 % 0 mm
02:14 19.2 °C 15.1 °C 1010.7 hPa Calm     77 % 0 mm
02:19 19.1 °C 15 °C 1011.1 hPa Calm     77 % 0 mm
02:24 19.1 °C 14.9 °C 1011.1 hPa Calm     77 % 0 mm
02:29 18.9 °C 14.8 °C 1011.1 hPa Calm     77 % 0 mm
02:34 18.8 °C 14.7 °C 1011.1 hPa Calm     77 % 0 mm
02:39 18.7 °C 14.6 °C 1011.1 hPa Calm     77 % 0 mm
02:44 18.6 °C 14.5 °C 1011.1 hPa Calm     77 % 0 mm
02:49 18.5 °C 14.4 °C 1011.1 hPa Calm     77 % 0 mm
02:54 18.4 °C 14.3 °C 1011.1 hPa Calm     77 % 0 mm
02:59 18.3 °C 14.4 °C 1011.1 hPa Calm     78 % 0 mm
03:04 18.2 °C 14.3 °C 1011.1 hPa Calm     78 % 0 mm
03:09 18.1 °C 14 °C 1011.1 hPa Calm     77 % 0 mm
03:14 18 °C 14.1 °C 1010.7 hPa Calm     78 % 0 mm
03:19 17.9 °C 14.1 °C 1011.1 hPa Calm     78 % 0 mm
03:24 17.8 °C 14.2 °C 1011.1 hPa Calm     79 % 0 mm
03:29 17.8 °C 14.1 °C 1011.1 hPa Calm     79 % 0 mm
03:34 17.7 °C 14 °C 1010.7 hPa Calm     79 % 0 mm
03:39 17.6 °C 14.3 °C 1010.7 hPa Calm     81 % 0 mm
03:44 17.5 °C 14.2 °C 1010.7 hPa Calm     81 % 0 mm
03:49 17.4 °C 14.1 °C 1010.7 hPa Calm     81 % 0 mm
03:54 17.3 °C 14 °C 1010.7 hPa Calm     81 % 0 mm
03:59 17.2 °C 13.9 °C 1011.1 hPa Calm     81 % 0 mm
04:04 17.1 °C 14 °C 1011.1 hPa Calm     82 % 0 mm
04:09 17.1 °C 13.9 °C 1011.1 hPa Calm     82 % 0 mm
04:14 16.9 °C 13.8 °C 1011.1 hPa Calm     82 % 0 mm
04:19 16.9 °C 13.8 °C 1011.1 hPa Calm     82 % 0 mm
04:24 16.8 °C 13.9 °C 1011.1 hPa Calm     83 % 0 mm
04:29 16.8 °C 13.9 °C 1011.1 hPa Calm     83 % 0 mm
04:34 16.7 °C 13.8 °C 1011.1 hPa Calm     83 % 0 mm
04:39 16.6 °C 13.7 °C 1011.1 hPa Calm     83 % 0 mm
04:44 16.6 °C 13.7 °C 1011.1 hPa Calm     83 % 0 mm
04:49 16.6 °C 13.7 °C 1011.1 hPa Calm     83 % 0 mm
04:54 16.5 °C 13.6 °C 1011.1 hPa Calm     83 % 0 mm
04:59 16.4 °C 13.6 °C 1011.1 hPa Calm     83 % 0 mm
05:04 16.4 °C 13.7 °C 1011.4 hPa Calm     84 % 0 mm
05:09 16.3 °C 13.6 °C 1011.4 hPa Calm     84 % 0 mm
05:14 16.3 °C 13.6 °C 1011.4 hPa Calm     84 % 0 mm
05:19 16.2 °C 13.5 °C 1011.4 hPa Calm     84 % 0 mm
05:24 16.2 °C 13.5 °C 1011.7 hPa Calm     84 % 0 mm
05:29 16.2 °C 13.7 °C 1011.4 hPa Calm     85 % 0 mm
05:34 16.2 °C 13.8 °C 1011.4 hPa Calm     86 % 0 mm
05:39 16.2 °C 13.8 °C 1011.7 hPa Calm     86 % 0 mm
05:44 16.1 °C 13.8 °C 1011.4 hPa Calm     86 % 0 mm
05:49 16.1 °C 13.8 °C 1011.7 hPa Calm     86 % 0 mm
05:54 16.1 °C 13.7 °C 1011.7 hPa Calm     86 % 0 mm
05:59 16.1 °C 13.7 °C 1011.7 hPa Calm     86 % 0 mm
06:04 16.1 °C 13.9 °C 1011.7 hPa Calm     87 % 0 mm
06:09 16.1 °C 13.9 °C 1011.7 hPa Calm     87 % 0 mm
06:14 16.1 °C 14.1 °C 1011.7 hPa Calm     88 % 0 mm
06:19 16.1 °C 14.3 °C 1011.7 hPa Calm     89 % 0 mm
06:24 16.2 °C 14.3 °C 1011.7 hPa Calm     89 % 0 mm
06:29 16.2 °C 14.6 °C 1011.7 hPa Calm     90 % 0 mm
06:34 16.3 °C 14.6 °C 1011.7 hPa Calm     90 % 0 mm
06:39 16.3 °C 14.7 °C 1012.1 hPa Calm     90 % 0 mm
06:44 16.4 °C 14.9 °C 1012.1 hPa Calm     91 % 0 mm
06:49 16.5 °C 15 °C 1012.1 hPa Calm     91 % 0 mm
06:54 16.6 °C 15.1 °C 1012.1 hPa Calm     91 % 0 mm
06:59 16.7 °C 15.2 °C 1012.1 hPa Calm     91 % 0 mm
07:04 16.8 °C 15.3 °C 1012.1 hPa Calm     91 % 0 mm
07:09 16.9 °C 15.4 °C 1012.1 hPa Calm     91 % 0 mm
07:14 17 °C 15.5 °C 1012.1 hPa Calm     91 % 0 mm
07:19 17.1 °C 15.6 °C 1012.1 hPa Calm     91 % 0 mm
07:24 17.2 °C 15.7 °C 1012.1 hPa Calm     91 % 0 mm
07:29 17.3 °C 15.8 °C 1012.1 hPa Calm   3.7 km/h 91 % 0 mm
07:34 17.4 °C 15.8 °C 1012.1 hPa Calm     90 % 0 mm
07:39 17.6 °C 15.7 °C 1012.4 hPa Calm     89 % 0 mm
07:44 17.7 °C 15.8 °C 1012.1 hPa Calm     89 % 0 mm
07:49 17.8 °C 15.8 °C 1012.1 hPa Calm     88 % 0 mm
07:54 17.8 °C 15.7 °C 1012.1 hPa Calm     87 % 0 mm
07:59 18 °C 15.4 °C 1012.1 hPa Calm     85 % 0 mm
08:04 18.1 °C 15.6 °C 1012.1 hPa Calm     85 % 0 mm
08:09 18.2 °C 15.3 °C 1012.4 hPa Calm     83 % 0 mm
08:14 18.4 °C 15.4 °C 1012.1 hPa Calm     83 % 0 mm
08:19 18.5 °C 15 °C 1012.1 hPa Calm   1.9 km/h 80 % 0 mm
08:24 18.6 °C 14.9 °C 1012.1 hPa Calm     79 % 0 mm
08:29 18.7 °C 14.8 °C 1012.1 hPa Calm     78 % 0 mm
08:34 18.9 °C 14.9 °C 1012.1 hPa Calm     78 % 0 mm
08:39 19 °C 14.9 °C 1012.1 hPa Calm     77 % 0 mm
08:44 19.1 °C 15.2 °C 1012.1 hPa Calm     78 % 0 mm
08:49 19.2 °C 15.1 °C 1012.1 hPa Calm     77 % 0 mm
08:54 19.3 °C 15.2 °C 1012.1 hPa Calm     77 % 0 mm
08:59 19.3 °C 15.4 °C 1012.1 hPa NNE 1.4 km/h 5.6 km/h 78 % 0 mm
09:04 19.4 °C 15.3 °C 1012.1 hPa Calm     77 % 0 mm
09:09 19.5 °C 15.3 °C 1012.1 hPa Calm     77 % 0 mm
09:14 19.6 °C 15.1 °C 1012.1 hPa Calm     75 % 0 mm
09:19 19.7 °C 15.3 °C 1012.1 hPa Calm     76 % 0 mm
09:24 19.7 °C 15.3 °C 1012.1 hPa Calm     76 % 0 mm
09:29 19.7 °C 14.9 °C 1012.1 hPa Calm     74 % 0 mm
09:34 19.8 °C 15 °C 1012.1 hPa Calm     74 % 0 mm
09:39 19.8 °C 15.1 °C 1012.1 hPa Calm     74 % 0 mm
09:44 19.8 °C 15.3 °C 1012.1 hPa Calm     75 % 0 mm
09:49 19.9 °C 15.1 °C 1011.7 hPa Calm     74 % 0 mm
09:54 19.9 °C 14.9 °C 1011.7 hPa Calm     73 % 0 mm
09:59 20 °C 15.2 °C 1011.7 hPa Calm     74 % 0 mm
10:04 20 °C 15 °C 1011.7 hPa Calm     73 % 0 mm
10:09 20.1 °C 15.3 °C 1011.7 hPa Calm     74 % 0 mm
10:14 20.2 °C 15.4 °C 1011.7 hPa Calm     74 % 0 mm
10:19 20.3 °C 15.1 °C 1011.7 hPa Calm     72 % 0 mm
10:24 20.4 °C 15.7 °C 1011.4 hPa Calm     74 % 0 mm
10:29 20.6 °C 15.4 °C 1011.7 hPa Calm     72 % 0 mm
10:34 21.2 °C 16.2 °C 1011.7 hPa ENE 0.5 km/h 3.2 km/h 73 % 0 mm
10:39 21.7 °C 15.7 °C 1011.4 hPa Calm     69 % 0 mm
10:44 22.3 °C 16.1 °C 1011.4 hPa North 0.2 km/h 3.2 km/h 68 % 0 mm
10:49 22.7 °C 15.8 °C 1011.4 hPa Calm     65 % 0 mm
10:54 23.2 °C 15.8 °C 1011.4 hPa Calm     63 % 0 mm
10:59 23.7 °C 15.9 °C 1011.4 hPa NNE 0.2 km/h   62 % 0 mm
11:04 24.1 °C 15.8 °C 1011.4 hPa NE 1.8 km/h 5.6 km/h 60 % 0 mm
11:09 24.3 °C 16.8 °C 1011.4 hPa NE 0.5 km/h 1.9 km/h 63 % 0 mm
11:14 24.8 °C 15.9 °C 1011.4 hPa ENE 1.6 km/h 5.6 km/h 58 % 0 mm
11:19 25 °C 15.6 °C 1011.4 hPa Calm   3.7 km/h 56 % 0 mm
11:24 25.2 °C 15.5 °C 1011.4 hPa ENE 2.1 km/h 11.1 km/h 55 % 0 mm
11:29 25.2 °C 14.9 °C 1011.4 hPa NE 4.2 km/h 11.1 km/h 53 % 0 mm
11:34 25.2 °C 16.1 °C 1011.4 hPa Calm     57 % 0 mm
11:39 25.3 °C 15.3 °C 1011.1 hPa NE 2.9 km/h 5.6 km/h 54 % 0 mm
11:44 25.3 °C 15.9 °C 1011.1 hPa NE 3.2 km/h 4.8 km/h 56 % 0 mm
11:49 25.2 °C 16.4 °C 1011.1 hPa Calm   7.4 km/h 58 % 0 mm
11:54 25.3 °C 15.9 °C 1011.1 hPa ENE 0.5 km/h 3.7 km/h 56 % 0 mm
11:59 25.4 °C 16.5 °C 1011.1 hPa ENE 2.6 km/h 3.2 km/h 58 % 0 mm
12:04 25.5 °C 16.3 °C 1011.1 hPa North 2.6 km/h 4.8 km/h 57 % 0 mm
12:09 25.6 °C 16.4 °C 1010.7 hPa NNE 2.7 km/h 5.6 km/h 57 % 0 mm
12:14 25.7 °C 15.9 °C 1011.1 hPa NNE 3.7 km/h 7.4 km/h 55 % 0 mm
12:19 25.7 °C 16 °C 1010.7 hPa NNE 2.9 km/h 8 km/h 55 % 0 mm
12:24 25.8 °C 16.1 °C 1010.7 hPa NNE 0.3 km/h 5.6 km/h 55 % 0 mm
12:29 25.9 °C 15.9 °C 1010.7 hPa ENE 3.2 km/h 5.6 km/h 54 % 0 mm
12:34 25.9 °C 16.2 °C 1010.7 hPa North 1.6 km/h 6.4 km/h 55 % 0 mm
12:39 25.9 °C 16.2 °C 1010.7 hPa NNE 3.1 km/h 7.4 km/h 55 % 0 mm
12:44 26 °C 15.9 °C 1010.7 hPa NE 0.8 km/h 5.6 km/h 54 % 0 mm
12:49 26.1 °C 16.9 °C 1010.4 hPa North 4.3 km/h 9.7 km/h 57 % 0 mm
12:54 26 °C 16.3 °C 1010.4 hPa ENE 1.6 km/h 5.6 km/h 55 % 0 mm
12:59 25.8 °C 16.3 °C 1010.4 hPa Calm     56 % 0 mm
13:04 25.5 °C 15.8 °C 1010.4 hPa NE 4.7 km/h 8 km/h 55 % 0 mm
Crab Meadow Weather
Compliments of Weather Underground - 2.25 mb

Script developed by  Jim McMurry - jmcmurry@mwt.net Adapted for the template by  Wim van der Kuil - Leuven-Template.eu

Weather Terms: Hail - Precipitation in the form of lumps of ice that form during some thunderstorms.